Hourly Data Report for October 27, 2016

All times are specified in Local Standard Time (LST). Add 1 hour to adjust for Daylight Saving Time where and when it is observed.

KITCHENER/WATERLOO
ONTARIO

43°27'39.000" N
80°22'43.000" W
321.60 m
6144239
71368
YKF

Download Data

Hourly Data (October 2016)
Hourly Data Report for October 27, 2016
Temp Definition
°C
Dew Point Temp Definition
°C
Rel Hum Definition
%
Wind Dir Definition
10's deg

Wind Spd Definition
km/h
Visibility Definition
km
Stn Press Definition
kPa
Hmdx Definition


Wind Chill Definition


Weather Definition


TIME
00:00 Legend Double Dagger 1.7 0.5 92 9 24 9.7 98.66     Snow
01:00 Legend Double Dagger 1.7 0.8 94 9 21 16.1 98.56     Rain
02:00 Legend Double Dagger 1.8 0.9 94 9 32 16.1 98.47     Rain
03:00 Legend Double Dagger 2.1 1.1 93 9 28 8.1 98.35     Rain,Fog
04:00 Legend Double Dagger 2.3 1.4 94 9 32 11.3 98.21     Rain
05:00 Legend Double Dagger 2.5 1.8 95 9 32 6.4 98.07     Rain,Fog
06:00 Legend Double Dagger 3.0 2.3 95 8 34 16.1 97.95     Rain
07:00 Legend Double Dagger 3.2 2.6 96 10 37 6.4 97.84     Rain,Fog
08:00 Legend Double Dagger 3.5 2.6 94 9 28 16.1 97.83     Rain
09:00 Legend Double Dagger 3.4 2.7 95 9 24 16.1 97.74     Rain
10:00 Legend Double Dagger 3.6 2.9 95 7 13 8.1 97.75     Rain,Fog
11:00 Legend Double Dagger 3.1 2.4 95 2 13 6.4 97.70     Moderate Rain,Fog
12:00 Legend Double Dagger 2.8 2.1 95 1 15 6.4 97.66     Rain,Fog
13:00 Legend Double Dagger 2.2 1.5 95 36 17 14.5 97.65     Rain
14:00 Legend Double Dagger 1.8 0.6 92 36 18 16.1 97.64     LegendNANA
15:00 Legend Double Dagger 1.8 0.3 90 34 18 16.1 97.75     LegendNANA
16:00 Legend Double Dagger 1.1 -0.6 89 1 21 16.1 97.85     LegendNANA
17:00 Legend Double Dagger 0.8 -0.2 93 33 13 8.1 97.92     Snow
18:00 Legend Double Dagger 0.5 -1.1 89 33 15 16.1 98.04     LegendNANA
19:00 Legend Double Dagger 0.3 -1.6 87 33 15 16.1 98.12     LegendNANA
20:00 Legend Double Dagger -0.2 -2.0 88 32 11 16.1 98.17   -4 LegendNANA
21:00 Legend Double Dagger 0.2 -1.4 89 30 15 16.1 98.22     LegendNANA
22:00 Legend Double Dagger 0.0 -1.3 91 31 11 16.1 98.24   -4 LegendNANA
23:00 Legend Double Dagger -0.3 -1.6 91 29 15 16.1 98.27   -5 LegendNANA

Notes on Data Quality.

Legend

  • E = Estimated
  • M = Missing
  • NA = Not Available
  • ‡ = Partner data that is not subject to review by the National Climate Archives
Date modified: